BHS238 KMCO-MYNN

Flight info

Callsign BHS238
Flight time 0h 49m
Altitude 23000
Route DDANY3 JIPOD DCT JUNIP DCT ZFP BR63V ZQA
Aircraft B737/M-SDE2E3FGHIRWXY/LB1

Departure

Time 2026-04-24 23:36
Airport Orlando International Airport (KMCO)

Arrival

Time 2026-04-25 00:25
Airport Lynden Pindling International Airport (MYNN)
Time Latitude Longitude Altitude Speed Heading
2026-04-24 23:17 28.43412 -81.30111 94 ft 0 kts 63°
2026-04-24 23:26 28.43411 -81.30112 94 ft 1 kts 63°
2026-04-24 23:27 28.43404 -81.30128 94 ft 3 kts 63°
2026-04-24 23:27 28.43395 -81.30149 93 ft 3 kts 63°
2026-04-24 23:27 28.43385 -81.30168 95 ft 3 kts 51°
2026-04-24 23:27 28.43372 -81.30186 95 ft 3 kts 48°
2026-04-24 23:28 28.43365 -81.30195 93 ft 0 kts 48°
2026-04-24 23:31 28.43366 -81.30193 94 ft 1 kts 48°
2026-04-24 23:31 28.43370 -81.30176 95 ft 3 kts 88°
2026-04-24 23:31 28.43355 -81.30161 93 ft 4 kts 164°
2026-04-24 23:32 28.43324 -81.30152 94 ft 5 kts 160°
2026-04-24 23:32 28.43297 -81.30120 94 ft 6 kts 120°
2026-04-24 23:32 28.43278 -81.30069 94 ft 8 kts 97°
2026-04-24 23:32 28.43283 -81.30006 94 ft 8 kts 72°
2026-04-24 23:33 28.43304 -81.29942 96 ft 9 kts 70°
2026-04-24 23:33 28.43320 -81.29898 94 ft 9 kts 67°
2026-04-24 23:33 28.43357 -81.29809 94 ft 10 kts 39°
2026-04-24 23:33 28.43427 -81.29805 94 ft 11 kts 356°
2026-04-24 23:34 28.43504 -81.29807 94 ft 11 kts
2026-04-24 23:34 28.43552 -81.29748 96 ft 11 kts 83°
2026-04-24 23:34 28.43556 -81.29661 95 ft 11 kts 88°
2026-04-24 23:34 28.43548 -81.29595 98 ft 7 kts 132°
2026-04-24 23:35 28.43502 -81.29589 97 ft 8 kts 179°
2026-04-24 23:35 28.43215 -81.29583 99 ft 80 kts 179°
2026-04-24 23:35 28.42435 -81.29564 95 ft 144 kts 175°
2026-04-24 23:35 28.41315 -81.29519 571 ft 162 kts 176°
2026-04-24 23:36 28.40235 -81.29534 1569 ft 149 kts 177°
2026-04-24 23:36 28.39204 -81.29505 2313 ft 153 kts 171°
2026-04-24 23:36 28.38093 -81.29138 2687 ft 182 kts 150°
2026-04-24 23:36 28.36908 -81.28296 2921 ft 215 kts 146°
2026-04-24 23:37 28.35605 -81.27342 3445 ft 231 kts 147°
2026-04-24 23:37 28.34235 -81.26176 3730 ft 261 kts 130°
2026-04-24 23:37 28.33028 -81.22188 5480 ft 279 kts 99°
2026-04-24 23:38 28.32731 -81.19983 6401 ft 286 kts 98°
2026-04-24 23:38 28.32438 -81.17734 7302 ft 291 kts 98°
2026-04-24 23:38 28.32136 -81.15448 8224 ft 294 kts 98°
2026-04-24 23:38 28.31821 -81.13132 9151 ft 299 kts 98°
2026-04-24 23:39 28.31495 -81.10787 10073 ft 303 kts 98°
2026-04-24 23:39 28.31161 -81.08413 10625 ft 319 kts 98°
2026-04-24 23:39 28.30792 -81.05820 10842 ft 346 kts 98°
2026-04-24 23:39 28.30395 -81.03045 11230 ft 365 kts 98°
2026-04-24 23:40 28.29979 -81.00157 11995 ft 370 kts 98°
2026-04-24 23:40 28.29561 -80.97270 12849 ft 373 kts 98°
2026-04-24 23:40 28.29137 -80.94342 13583 ft 380 kts 98°
2026-04-24 23:40 28.28706 -80.91368 14357 ft 383 kts 99°
2026-04-24 23:41 28.28270 -80.88364 15126 ft 387 kts 99°
2026-04-24 23:41 28.27691 -80.85353 15828 ft 393 kts 107°
2026-04-24 23:41 28.27067 -80.83424 16332 ft 396 kts 112°
2026-04-24 23:41 28.25633 -80.79527 17317 ft 403 kts 113°
2026-04-24 23:42 28.24533 -80.76588 17987 ft 409 kts 113°
2026-04-24 23:42 28.23798 -80.74598 18401 ft 413 kts 112°
2026-04-24 23:42 28.22696 -80.71568 18990 ft 418 kts 112°
2026-04-24 23:42 28.21233 -80.67505 19856 ft 422 kts 112°
2026-04-24 23:43 28.20500 -80.65411 20276 ft 425 kts 111°
2026-04-24 23:43 28.19449 -80.62261 20889 ft 429 kts 110°
2026-04-24 23:43 28.18407 -80.59064 21483 ft 433 kts 110°
2026-04-24 23:43 28.17356 -80.55836 22063 ft 437 kts 110°
2026-04-24 23:44 28.16299 -80.52603 22726 ft 439 kts 111°
2026-04-24 23:44 28.15226 -80.49344 22947 ft 445 kts 111°
2026-04-24 23:44 28.14133 -80.46045 22950 ft 448 kts 111°
2026-04-24 23:44 28.13039 -80.42746 22950 ft 447 kts 111°
2026-04-24 23:45 28.11956 -80.39485 22972 ft 447 kts 111°
2026-04-24 23:45 28.10834 -80.36209 22976 ft 447 kts 115°
2026-04-24 23:45 28.09268 -80.33179 22976 ft 445 kts 128°
2026-04-24 23:45 28.07222 -80.30571 22978 ft 443 kts 139°
2026-04-24 23:46 28.04778 -80.28455 22979 ft 440 kts 149°
2026-04-24 23:46 28.02198 -80.26579 22978 ft 441 kts 150°
2026-04-24 23:46 27.99599 -80.24735 22977 ft 441 kts 150°
2026-04-24 23:46 27.97000 -80.22893 22972 ft 441 kts 150°
2026-04-24 23:47 27.94405 -80.21042 22975 ft 440 kts 150°
2026-04-24 23:47 27.91822 -80.19183 22977 ft 440 kts 149°
2026-04-24 23:47 27.89237 -80.17311 22978 ft 440 kts 149°
2026-04-24 23:47 27.86643 -80.15426 22995 ft 450 kts 149°
2026-04-24 23:48 27.83987 -80.13495 22993 ft 460 kts 149°
2026-04-24 23:48 27.81258 -80.11509 22996 ft 469 kts 149°
2026-04-24 23:48 27.78493 -80.09498 22992 ft 476 kts 149°
2026-04-24 23:48 27.75694 -80.07462 22989 ft 481 kts 149°
2026-04-24 23:49 27.72876 -80.05412 22974 ft 478 kts 149°
2026-04-24 23:49 27.70086 -80.03384 22976 ft 478 kts 149°
2026-04-24 23:49 27.67281 -80.01347 22984 ft 478 kts 149°
2026-04-24 23:49 27.64487 -79.99321 22985 ft 478 kts 149°
2026-04-24 23:50 27.61689 -79.97293 22990 ft 478 kts 149°
2026-04-24 23:50 27.58894 -79.95268 22989 ft 478 kts 149°
2026-04-24 23:50 27.56096 -79.93243 22987 ft 478 kts 149°
2026-04-24 23:50 27.53296 -79.91218 22989 ft 478 kts 149°
2026-04-24 23:51 27.50533 -79.89221 22989 ft 478 kts 149°
2026-04-24 23:51 27.47694 -79.87170 22988 ft 478 kts 149°
2026-04-24 23:51 27.44893 -79.85147 22992 ft 478 kts 149°
2026-04-24 23:51 27.42131 -79.83154 22991 ft 478 kts 149°
2026-04-24 23:52 27.39329 -79.81133 22988 ft 478 kts 149°
2026-04-24 23:52 27.36516 -79.79105 22991 ft 478 kts 149°
2026-04-24 23:52 27.33713 -79.77086 22989 ft 479 kts 149°
2026-04-24 23:52 27.30907 -79.75065 22989 ft 479 kts 149°
2026-04-24 23:53 27.28100 -79.73046 22991 ft 479 kts 149°
2026-04-24 23:53 27.25393 -79.70855 22981 ft 481 kts 141°
2026-04-24 23:53 27.22976 -79.68243 22984 ft 483 kts 132°
2026-04-24 23:53 27.20899 -79.65287 23000 ft 483 kts 128°
2026-04-24 23:54 27.18879 -79.62261 22993 ft 484 kts 128°
2026-04-24 23:54 27.16885 -79.59251 22991 ft 484 kts 128°
2026-04-24 23:54 27.14875 -79.56228 22992 ft 484 kts 128°
2026-04-24 23:54 27.12843 -79.53199 22993 ft 484 kts 128°
2026-04-24 23:55 27.10809 -79.50192 22991 ft 484 kts 128°
2026-04-24 23:55 27.08761 -79.47181 22995 ft 484 kts 128°
2026-04-24 23:55 27.06717 -79.44187 22993 ft 484 kts 128°
2026-04-24 23:55 27.04689 -79.41221 22994 ft 484 kts 128°
2026-04-24 23:56 27.02639 -79.38225 22991 ft 484 kts 128°
2026-04-24 23:56 27.00593 -79.35235 22993 ft 484 kts 128°
2026-04-24 23:56 26.98539 -79.32236 22990 ft 485 kts 128°
2026-04-24 23:56 26.96484 -79.29236 22988 ft 485 kts 128°
2026-04-24 23:57 26.94427 -79.26234 22991 ft 485 kts 128°
2026-04-24 23:57 26.92368 -79.23231 22987 ft 485 kts 128°
2026-04-24 23:57 26.90308 -79.20229 22987 ft 485 kts 128°
2026-04-24 23:57 26.88254 -79.17238 22987 ft 485 kts 128°
2026-04-24 23:58 26.86192 -79.14238 22993 ft 485 kts 128°
2026-04-24 23:58 26.84135 -79.11245 22990 ft 485 kts 128°
2026-04-24 23:58 26.82072 -79.08247 22992 ft 486 kts 129°
2026-04-24 23:58 26.80010 -79.05253 22993 ft 486 kts 129°
2026-04-24 23:59 26.77973 -79.02297 22992 ft 486 kts 129°
2026-04-24 23:59 26.75883 -78.99265 22994 ft 486 kts 129°
2026-04-24 23:59 26.73820 -78.96274 22991 ft 486 kts 129°
2026-04-24 23:59 26.71755 -78.93283 22990 ft 486 kts 129°
2026-04-25 00:00 26.69715 -78.90329 22992 ft 486 kts 129°
2026-04-25 00:00 26.67648 -78.87340 22991 ft 486 kts 129°
2026-04-25 00:00 26.65585 -78.84357 22992 ft 486 kts 129°
2026-04-25 00:00 26.63518 -78.81370 22991 ft 486 kts 129°
2026-04-25 00:01 26.61451 -78.78386 22990 ft 486 kts 129°
2026-04-25 00:01 26.59379 -78.75394 22991 ft 486 kts 129°
2026-04-25 00:01 26.57311 -78.72413 22990 ft 486 kts 129°
2026-04-25 00:01 26.55235 -78.69421 22988 ft 486 kts 129°
2026-04-25 00:02 26.53144 -78.66437 22985 ft 486 kts 129°
2026-04-25 00:02 26.51049 -78.63474 22987 ft 486 kts 129°
2026-04-25 00:02 26.48952 -78.60512 22992 ft 486 kts 129°
2026-04-25 00:02 26.46850 -78.57540 22994 ft 486 kts 129°
2026-04-25 00:03 26.44780 -78.54611 23000 ft 486 kts 129°
2026-04-25 00:03 26.42679 -78.51650 22997 ft 486 kts 130°
2026-04-25 00:03 26.40575 -78.48697 22992 ft 486 kts 130°
2026-04-25 00:03 26.38463 -78.45738 22991 ft 486 kts 130°
2026-04-25 00:04 26.36353 -78.42782 22994 ft 486 kts 130°
2026-04-25 00:04 26.34242 -78.39826 22994 ft 486 kts 130°
2026-04-25 00:04 26.32158 -78.36908 22997 ft 486 kts 130°
2026-04-25 00:04 26.30026 -78.33923 22997 ft 486 kts 130°
2026-04-25 00:05 26.27954 -78.31023 22998 ft 486 kts 130°
2026-04-25 00:05 26.25850 -78.28080 22994 ft 486 kts 130°
2026-04-25 00:05 26.23736 -78.25125 22997 ft 486 kts 130°
2026-04-25 00:05 26.21624 -78.22176 22996 ft 486 kts 130°
2026-04-25 00:06 26.19512 -78.19229 22996 ft 486 kts 130°
2026-04-25 00:06 26.17430 -78.16325 22995 ft 486 kts 130°
2026-04-25 00:06 26.15322 -78.13387 22997 ft 486 kts 130°
2026-04-25 00:06 26.13211 -78.10444 22996 ft 486 kts 130°
2026-04-25 00:07 26.11102 -78.07507 22997 ft 486 kts 130°
2026-04-25 00:07 26.09025 -78.04613 22978 ft 469 kts 130°
2026-04-25 00:07 26.07036 -78.01841 22979 ft 447 kts 130°
2026-04-25 00:07 26.05131 -77.99189 22977 ft 429 kts 131°
2026-04-25 00:08 26.03269 -77.96602 22998 ft 429 kts 131°
2026-04-25 00:08 26.01404 -77.94016 22707 ft 429 kts 131°
2026-04-25 00:08 25.99541 -77.91433 22204 ft 427 kts 131°
2026-04-25 00:08 25.97690 -77.88864 21630 ft 423 kts 131°
2026-04-25 00:09 25.95866 -77.86333 21050 ft 418 kts 131°
2026-04-25 00:09 25.94049 -77.83816 20474 ft 415 kts 131°
2026-04-25 00:09 25.92248 -77.81322 19896 ft 411 kts 131°
2026-04-25 00:09 25.90456 -77.78842 19326 ft 408 kts 131°
2026-04-25 00:10 25.88684 -77.76394 18732 ft 406 kts 131°
2026-04-25 00:10 25.86916 -77.73950 18127 ft 404 kts 131°
2026-04-25 00:10 25.85164 -77.71530 17486 ft 401 kts 131°
2026-04-25 00:10 25.83443 -77.69153 16906 ft 397 kts 131°
2026-04-25 00:11 25.81719 -77.66774 16315 ft 394 kts 131°
2026-04-25 00:11 25.80562 -77.65177 15900 ft 392 kts 131°
2026-04-25 00:11 25.78302 -77.62059 15147 ft 388 kts 130°
2026-04-25 00:11 25.76620 -77.59741 14585 ft 385 kts 130°
2026-04-25 00:12 25.74952 -77.57442 14014 ft 375 kts 130°
2026-04-25 00:12 25.73335 -77.55215 13456 ft 369 kts 130°
2026-04-25 00:12 25.71754 -77.53039 13297 ft 355 kts 130°
2026-04-25 00:12 25.70102 -77.51103 13089 ft 338 kts 146°
2026-04-25 00:13 25.68081 -77.50007 12932 ft 315 kts 167°
2026-04-25 00:13 25.65937 -77.49667 12520 ft 308 kts 184°
2026-04-25 00:13 25.63847 -77.49985 12166 ft 301 kts 195°
2026-04-25 00:13 25.61811 -77.50542 11799 ft 300 kts 198°
2026-04-25 00:14 25.59819 -77.51137 11437 ft 300 kts 198°
2026-04-25 00:14 25.57805 -77.51746 11058 ft 299 kts 198°
2026-04-25 00:14 25.55793 -77.52348 10690 ft 299 kts 197°
2026-04-25 00:14 25.53782 -77.52942 10314 ft 298 kts 197°
2026-04-25 00:15 25.51784 -77.53527 9956 ft 295 kts 197°
2026-04-25 00:15 25.49857 -77.54085 9625 ft 287 kts 197°
2026-04-25 00:15 25.47911 -77.54649 9217 ft 286 kts 197°
2026-04-25 00:15 25.45979 -77.55206 8809 ft 286 kts 196°
2026-04-25 00:16 25.44064 -77.55758 8444 ft 283 kts 196°
2026-04-25 00:16 25.42158 -77.56306 8087 ft 281 kts 196°
2026-04-25 00:16 25.40296 -77.56841 7736 ft 279 kts 196°
2026-04-25 00:16 25.38416 -77.57380 7383 ft 277 kts 196°
2026-04-25 00:17 25.36554 -77.57915 7036 ft 275 kts 196°
2026-04-25 00:17 25.34711 -77.58443 6687 ft 269 kts 196°
2026-04-25 00:17 25.32932 -77.58953 6349 ft 260 kts 196°
2026-04-25 00:17 25.31209 -77.59447 6009 ft 252 kts 196°
2026-04-25 00:18 25.29537 -77.59926 5687 ft 245 kts 196°
2026-04-25 00:18 25.27907 -77.60393 5379 ft 238 kts 195°
2026-04-25 00:18 25.26343 -77.60842 5085 ft 231 kts 195°
2026-04-25 00:18 25.24793 -77.61286 4823 ft 229 kts 195°
2026-04-25 00:19 25.23267 -77.61722 4550 ft 223 kts 195°
2026-04-25 00:19 25.21780 -77.62148 4247 ft 219 kts 194°
2026-04-25 00:19 25.20322 -77.62546 3945 ft 213 kts 188°
2026-04-25 00:19 25.18924 -77.62226 3678 ft 203 kts 148°
2026-04-25 00:20 25.17814 -77.61303 3418 ft 196 kts 143°
2026-04-25 00:20 25.16766 -77.60379 3163 ft 189 kts 140°
2026-04-25 00:20 25.15815 -77.59410 2914 ft 181 kts 136°
2026-04-25 00:20 25.14949 -77.58463 2704 ft 169 kts 135°
2026-04-25 00:21 25.14157 -77.57582 2482 ft 154 kts 134°
2026-04-25 00:21 25.13450 -77.56793 2300 ft 139 kts 134°
2026-04-25 00:21 25.12784 -77.56051 2111 ft 135 kts 134°
2026-04-25 00:21 25.12129 -77.55319 1954 ft 137 kts 134°
2026-04-25 00:22 25.11463 -77.54574 1773 ft 135 kts 133°
2026-04-25 00:22 25.10799 -77.53834 1605 ft 137 kts 133°
2026-04-25 00:22 25.10124 -77.53099 1388 ft 136 kts 134°
2026-04-25 00:22 25.09471 -77.52347 1208 ft 135 kts 131°
2026-04-25 00:23 25.08823 -77.51600 1047 ft 135 kts 133°
2026-04-25 00:23 25.08152 -77.50868 908 ft 136 kts 135°
2026-04-25 00:23 25.07483 -77.50144 731 ft 134 kts 134°
2026-04-25 00:23 25.06829 -77.49403 545 ft 135 kts 134°
2026-04-25 00:24 25.06176 -77.48658 358 ft 136 kts 136°
2026-04-25 00:24 25.05727 -77.48175 233 ft 136 kts 137°
2026-04-25 00:24 25.04858 -77.47206 20 ft 124 kts 135°
2026-04-25 00:24 25.04353 -77.46649 18 ft 81 kts 134°
2026-04-25 00:25 25.04059 -77.46323 19 ft 45 kts 135°
2026-04-25 00:25 25.03858 -77.46098 18 ft 36 kts 135°
2026-04-25 00:25 25.03761 -77.45936 18 ft 21 kts 63°
2026-04-25 00:25 25.03877 -77.45869 16 ft 20 kts 335°
2026-04-25 00:26 25.03945 -77.45937 16 ft 20 kts 315°
2026-04-25 00:26 25.04042 -77.46042 17 ft 19 kts 313°
2026-04-25 00:26 25.04132 -77.46147 16 ft 19 kts 315°
2026-04-25 00:26 25.04220 -77.46247 18 ft 18 kts 313°
2026-04-25 00:27 25.04305 -77.46344 18 ft 17 kts 315°
2026-04-25 00:27 25.04391 -77.46434 17 ft 17 kts 316°
2026-04-25 00:27 25.04470 -77.46522 16 ft 16 kts 314°
2026-04-25 00:27 25.04546 -77.46609 16 ft 15 kts 314°
2026-04-25 00:28 25.04620 -77.46691 18 ft 15 kts 316°
2026-04-25 00:28 25.04692 -77.46768 18 ft 14 kts 316°
2026-04-25 00:28 25.04762 -77.46842 18 ft 14 kts 315°
2026-04-25 00:28 25.04826 -77.46914 19 ft 13 kts 314°
2026-04-25 00:29 25.04903 -77.46952 18 ft 13 kts
2026-04-25 00:29 25.04961 -77.46890 16 ft 12 kts 77°
2026-04-25 00:29 25.04958 -77.46802 16 ft 10 kts 116°
2026-04-25 00:29 25.04909 -77.46769 16 ft 5 kts 158°
2026-04-25 00:30 25.04903 -77.46766 16 ft 0 kts 158°